This is the latest recevied weather packets stored in our database for station/object KD5FHA. If no packets are shown the sender has not sent any weather packets the latest 10 day(s).
| Time | Temp. | Humidity | Pressure | Rain* | Wind** | Luminosity | Snow |
|---|---|---|---|---|---|---|---|
| 1778171652 | 19.44° C | 60% | 1020.1 hPa | 0 mm | - | 957 W/m² | - |
| 1778171349 | 18.89° C | 62% | 1020 hPa | 0 mm | - | 409 W/m² | - |
| 1778171043 | 19.44° C | 63% | 1019.8 hPa | 0 mm | - | 326 W/m² | - |
| 1778170741 | 18.33° C | 64% | 1020.1 hPa | 0 mm | - | 773 W/m² | - |
| 1778170438 | 19.44° C | 62% | 1020.1 hPa | 0 mm | - | 812 W/m² | - |
| 1778170134 | 18.89° C | 62% | 1020.2 hPa | 0 mm | - | 363 W/m² | - |
| 1778169830 | 19.44° C | 65% | 1019.9 hPa | 0 mm | - | 674 W/m² | - |
| 1778169526 | 18.33° C | 65% | 1020.1 hPa | 0 mm | - | 695 W/m² | - |
| 1778169222 | 17.78° C | 65% | 1019.9 hPa | 0 mm | - | 330 W/m² | - |
| 1778168919 | 17.78° C | 67% | 1019.7 hPa | 0 mm | - | 528 W/m² | - |
| 1778168616 | 17.78° C | 67% | 1019.6 hPa | 0 mm | - | 239 W/m² | - |
| 1778168313 | 18.33° C | 65% | 1019.8 hPa | 0 mm | - | 775 W/m² | - |
| 1778168010 | 18.33° C | 66% | 1019.9 hPa | 0 mm | - | 769 W/m² | - |
| 1778167707 | 17.78° C | 68% | 1020 hPa | 0 mm | - | 684 W/m² | - |
| 1778167403 | 17.22° C | 69% | 1020.1 hPa | 0 mm | - | 287 W/m² | - |
| 1778167099 | 17.78° C | 70% | 1020.2 hPa | 0 mm | - | 249 W/m² | - |
| 1778166795 | 17.22° C | 70% | 1020.3 hPa | 0 mm | - | 407 W/m² | - |
| 1778166492 | 17.22° C | 70% | 1020.2 hPa | 0 mm | - | 476 W/m² | - |
| 1778166189 | 17.22° C | 71% | 1020.3 hPa | 0 mm | - | 502 W/m² | - |
| 1778165885 | 16.67° C | 72% | 1020.2 hPa | 0 mm | - | 254 W/m² | - |
| 1778165582 | 16.67° C | 72% | 1020.4 hPa | 0 mm | - | 191 W/m² | - |
| 1778165279 | 16.11° C | 73% | 1020.7 hPa | 0 mm | - | 133 W/m² | - |
| 1778164976 | 15.56° C | 73% | 1020.5 hPa | 0 mm | - | 130 W/m² | - |
| 1778164672 | 16.11° C | 74% | 1020.6 hPa | 0 mm | - | 148 W/m² | - |
| 1778164370 | 16.11° C | 76% | 1020.7 hPa | 0 mm | - | 141 W/m² | - |
* Rain latest hour (hover to see other rain measurements)
** Current wind speed in m/s (hover to see current wind gust speed)